Home > Weather > New Orleans > Past weeks

Flag for USA Past Weather in New Orleans, Louisiana, USA — Yesterday and Last 2 Weeks

Now
77 °F

Light rain. Mostly cloudy.


Feels Like: 78 °F
Forecast: 78 / 87 °F
Wind: 17 mph from West

Location: Lakefront Airport

Current Time: Jul 27, 2016 at 8:28:22 AM

Latest Report: Jul 27, 2016 at 7:53 AM


Visibility: 10 mi

Pressure: 30.00 "Hg

Humidity: 85%

Dew Point: 72 °F

Location of New OrleansLocation

Past Weather in New Orleans — Graph

°F

New Orleans Temperature Yesterday

Maximum temperature yesterday: 85 °F (at 12:53 PM)
Minimum temperature yesterday: 77 °F (at 1:56 PM)
Average temperature yesterday: 81 °F

High & Low Weather Summary for the Past Weeks

 TemperatureHumidityPressure
High94 °F (Jul 21, 1:53 PM)90% (Jul 15, 11:53 PM)30.23 "Hg (Jul 15, 11:53 PM)
Low77 °F (Jul 14, 10:53 PM)44% (Jul 19, 2:53 PM)29.87 "Hg (Jul 26, 2:53 AM)
Average84 °F74%30.04 "Hg
* Reported Jul 12 6:53 AM — Jul 27 6:53 AM, New Orleans, Weather by CustomWeather, © 2016

Note: Actual official high and low records may vary slightly from our data, if they occured in-between our weather recording intervals... More about our weather records

Advertising

New Orleans Weather History for the Previous 24 Hours

Scroll right to see more
 ConditionsComfort  
Time TempWeatherWind HumidityBarometerVisibility
6:53 AM
Wed, Jul 27
79 °FLight rain. Overcast.18 mph84%30.01 "Hg6 mi
6:04 AM80 °FMostly cloudy.5 mph79%30.01 "Hg9 mi
5:02 AM80 °FPassing clouds.10 mph85%29.98 "Hg9 mi
4:53 AM81 °FPartly cloudy.7 mph82%29.95 "Hg9 mi
3:53 AM79 °FClear.8 mph82%29.94 "Hg9 mi
2:53 AM78 °FClear.7 mph82%29.94 "Hg9 mi
1:53 AM79 °FClear.9 mph79%29.95 "Hg9 mi
12:53 AM79 °FMostly cloudy.9 mph79%29.98 "Hg8 mi
11:53 PM
Tue, Jul 26
79 °FLight rain. Passing clouds.10 mph79%29.98 "Hg7 mi
10:53 PM79 °FOvercast.12 mph82%29.98 "Hg9 mi
9:53 PM79 °FClear.10 mph82%29.96 "Hg9 mi
8:53 PM80 °FSunny.13 mph79%29.93 "Hg9 mi
7:53 PM78 °FScattered clouds.14 mph84%29.93 "Hg7 mi
6:53 PM79 °FPartly sunny.14 mph84%29.92 "Hg8 mi
5:53 PM79 °FCloudy.16 mph88%29.91 "Hg8 mi
4:53 PM80 °FCloudy.18 mph87%29.91 "Hg10 mi
3:53 PM79 °FLight rain. Cloudy.14 mph88%29.90 "Hg10 mi
2:53 PM77 °FLight rain. Fog.10 mph90%29.92 "Hg4 mi
1:56 PM77 °FThunderstorms. Fog.13 mph90%29.95 "Hg2 mi
12:53 PM85 °FThundershowers. Passing clouds.6 mph72%29.93 "Hg10 mi
11:53 AM83 °FPassing clouds.No wind77%29.93 "Hg10 mi
10:53 AM83 °FScattered clouds.7 mph74%29.92 "Hg10 mi
9:53 AM82 °FScattered clouds.14 mph82%29.93 "Hg10 mi
8:56 AM78 °FRain. Cloudy.6 mph84%29.95 "Hg2 mi
8:03 AM82 °FThundershowers. Partly sunny.N/A79%29.93 "Hg10 mi
Weather by CustomWeather, © 2016

See weather overviewHow to use our weather pages